TimeMDT,TemperatureF,Dew PointF,Humidity,Sea Level PressureIn,VisibilityMPH,Wind Direction,Wind SpeedMPH,Gust SpeedMPH,PrecipitationIn,Events,Conditions,WindDirDegrees,DateUTC
12:15 AM,30.6,24.3,77,30.09,10.0,NNE,4.6,-,N/A,,Scattered Clouds,20,2013-04-18 06:15:00
12:35 AM,30.4,24.4,79,30.09,10.0,NNE,3.5,-,N/A,,Scattered Clouds,20,2013-04-18 06:35:00
12:55 AM,30.0,24.1,79,30.09,10.0,Calm,Calm,-,N/A,,Scattered Clouds,0,2013-04-18 06:55:00
1:15 AM,30.4,22.8,73,30.11,10.0,Calm,Calm,-,N/A,,Scattered Clouds,0,2013-04-18 07:15:00
1:35 AM,30.2,22.6,73,30.11,10.0,Calm,Calm,-,N/A,,Scattered Clouds,0,2013-04-18 07:35:00
1:55 AM,29.3,21.9,74,30.10,10.0,Calm,Calm,-,N/A,,Mostly Cloudy,0,2013-04-18 07:55:00
2:15 AM,28.8,21.4,74,30.10,10.0,Calm,Calm,-,N/A,,Scattered Clouds,0,2013-04-18 08:15:00
2:35 AM,28.4,21.2,74,30.11,10.0,North,4.6,-,N/A,,Clear,360,2013-04-18 08:35:00
2:55 AM,28.4,21.0,74,30.11,10.0,Calm,Calm,-,N/A,,Clear,0,2013-04-18 08:55:00
3:15 AM,28.4,21.4,75,30.11,10.0,Calm,Calm,-,N/A,,Clear,0,2013-04-18 09:15:00
3:35 AM,28.4,20.7,73,30.11,10.0,North,5.8,-,N/A,,Clear,360,2013-04-18 09:35:00
3:55 AM,28.0,19.8,71,30.11,10.0,Calm,Calm,-,N/A,,Clear,0,2013-04-18 09:55:00
4:15 AM,28.0,19.2,70,30.11,10.0,Calm,Calm,-,N/A,,Clear,0,2013-04-18 10:15:00
4:35 AM,27.5,18.9,70,30.12,10.0,Calm,Calm,-,N/A,,Clear,0,2013-04-18 10:35:00
4:55 AM,27.3,18.3,69,30.12,10.0,Calm,Calm,-,N/A,,Clear,0,2013-04-18 10:55:00
5:15 AM,27.0,19.6,74,30.12,10.0,Calm,Calm,-,N/A,,Scattered Clouds,0,2013-04-18 11:15:00
5:35 AM,26.6,19.0,73,30.12,10.0,North,5.8,-,N/A,,Mostly Cloudy,350,2013-04-18 11:35:00
5:55 AM,26.6,18.5,71,30.12,10.0,North,5.8,-,N/A,,Scattered Clouds,360,2013-04-18 11:55:00
6:15 AM,26.2,18.7,73,30.13,10.0,North,4.6,-,N/A,,Scattered Clouds,350,2013-04-18 12:15:00
6:35 AM,26.1,18.3,73,30.14,10.0,Calm,Calm,-,N/A,,Clear,0,2013-04-18 12:35:00
6:55 AM,25.3,18.3,75,30.14,10.0,NNE,4.6,-,N/A,,Clear,20,2013-04-18 12:55:00
7:15 AM,26.1,18.1,72,30.15,10.0,NE,3.5,-,N/A,,Clear,40,2013-04-18 13:15:00
7:35 AM,26.4,17.8,70,30.16,10.0,NE,4.6,-,N/A,,Clear,40,2013-04-18 13:35:00
7:55 AM,27.3,17.8,67,30.17,10.0,ENE,3.5,-,N/A,,Clear,60,2013-04-18 13:55:00
8:15 AM,27.5,17.8,67,30.18,10.0,NE,3.5,-,N/A,,Clear,40,2013-04-18 14:15:00
8:35 AM,28.2,18.9,68,30.19,10.0,NE,4.6,-,N/A,,Clear,50,2013-04-18 14:35:00
8:55 AM,28.6,19.2,68,30.19,10.0,NE,3.5,-,N/A,,Clear,40,2013-04-18 14:55:00
9:15 AM,29.5,19.6,67,30.19,10.0,ENE,5.8,-,N/A,,Clear,60,2013-04-18 15:15:00
9:35 AM,30.4,19.8,65,30.20,10.0,Calm,Calm,-,N/A,,Scattered Clouds,0,2013-04-18 15:35:00
9:55 AM,31.1,19.8,63,30.20,10.0,Calm,Calm,-,N/A,,Clear,0,2013-04-18 15:55:00
10:15 AM,31.5,19.8,62,30.21,10.0,Calm,Calm,-,N/A,,Clear,0,2013-04-18 16:15:00
10:35 AM,32.0,19.8,61,30.21,10.0,Calm,Calm,-,N/A,,Clear,0,2013-04-18 16:35:00
10:55 AM,32.7,19.2,58,30.21,10.0,Calm,Calm,-,N/A,,Mostly Cloudy,0,2013-04-18 16:55:00
11:15 AM,34.0,19.8,56,30.21,10.0,NNE,3.5,-,N/A,,Overcast,30,2013-04-18 17:15:00
11:35 AM,34.9,20.3,55,30.21,10.0,WNW,3.5,-,N/A,,Overcast,300,2013-04-18 17:35:00
11:55 AM,36.5,19.2,50,30.21,10.0,NW,5.8,-,N/A,,Overcast,310,2013-04-18 17:55:00
12:15 PM,36.7,17.1,45,30.21,10.0,WSW,6.9,-,N/A,,Overcast,250,2013-04-18 18:15:00
12:35 PM,37.6,17.1,43,30.21,10.0,West,11.5,17.3,N/A,,Overcast,270,2013-04-18 18:35:00
12:55 PM,39.4,16.2,39,30.20,10.0,West,10.4,17.3,N/A,,Scattered Clouds,270,2013-04-18 18:55:00
1:15 PM,38.7,11.3,33,30.19,10.0,West,8.1,-,N/A,,Mostly Cloudy,260,2013-04-18 19:15:00
1:35 PM,39.2,12.9,34,30.20,10.0,NNE,8.1,-,N/A,,Overcast,20,2013-04-18 19:35:00
1:55 PM,40.3,15.1,36,30.20,10.0,NE,8.1,16.1,N/A,,Overcast,50,2013-04-18 19:55:00
2:35 PM,41.7,10.6,28,30.21,10.0,NW,12.7,21.9,N/A,,Clear,310,2013-04-18 20:35:00
2:55 PM,41.9,13.5,32,30.21,10.0,West,17.3,24.2,N/A,,Scattered Clouds,280,2013-04-18 20:55:00
3:15 PM,41.2,13.1,32,30.22,10.0,West,15.0,19.6,N/A,,Scattered Clouds,270,2013-04-18 21:15:00
3:35 PM,41.2,12.9,32,30.22,10.0,West,15.0,21.9,N/A,,Scattered Clouds,270,2013-04-18 21:35:00
3:55 PM,42.8,12.9,30,30.22,10.0,West,12.7,24.2,N/A,,Mostly Cloudy,280,2013-04-18 21:55:00
4:15 PM,42.8,12.4,29,30.22,10.0,West,17.3,23.0,N/A,,Mostly Cloudy,280,2013-04-18 22:15:00
4:35 PM,42.8,12.4,29,30.22,10.0,West,17.3,20.7,N/A,,Scattered Clouds,280,2013-04-18 22:35:00
4:55 PM,43.0,13.5,30,30.23,10.0,West,11.5,23.0,N/A,,Clear,280,2013-04-18 22:55:00
5:15 PM,42.8,13.3,30,30.23,10.0,NW,11.5,20.7,N/A,,Clear,310,2013-04-18 23:15:00
5:35 PM,43.0,12.6,29,30.23,10.0,West,9.2,17.3,N/A,,Clear,280,2013-04-18 23:35:00
5:55 PM,43.3,9.9,26,30.24,10.0,NW,11.5,-,N/A,,Clear,310,2013-04-18 23:55:00
6:15 PM,42.4,11.3,28,30.25,10.0,WNW,5.8,-,N/A,,Clear,290,2013-04-19 00:15:00
6:35 PM,42.1,12.0,29,30.25,10.0,WNW,5.8,-,N/A,,Clear,300,2013-04-19 00:35:00
6:55 PM,42.1,12.0,29,30.25,10.0,NNW,3.5,-,N/A,,Clear,340,2013-04-19 00:55:00
7:15 PM,41.5,9.1,27,30.26,10.0,NNW,6.9,-,N/A,,Clear,340,2013-04-19 01:15:00
7:35 PM,40.8,11.7,30,30.27,10.0,West,3.5,9.2,N/A,,Clear,280,2013-04-19 01:35:00
8:55 PM,34.0,18.9,54,30.29,10.0,Calm,Calm,-,N/A,,Clear,0,2013-04-19 02:55:00
9:35 PM,33.1,16.9,51,30.31,10.0,NNE,6.9,-,N/A,,Clear,30,2013-04-19 03:35:00
9:55 PM,32.0,18.7,58,30.31,10.0,ENE,3.5,-,N/A,,Clear,60,2013-04-19 03:55:00
10:15 PM,31.6,18.5,58,30.32,10.0,NNE,6.9,-,N/A,,Clear,30,2013-04-19 04:15:00
10:35 PM,31.6,17.8,57,30.32,10.0,NNE,9.2,-,N/A,,Clear,30,2013-04-19 04:35:00
10:55 PM,31.6,17.6,56,30.31,10.0,North,9.2,-,N/A,,Clear,10,2013-04-19 04:55:00
11:15 PM,31.3,17.6,57,30.32,10.0,NNE,8.1,-,N/A,,Clear,20,2013-04-19 05:15:00
11:35 PM,31.5,17.1,55,30.32,10.0,NE,5.8,-,N/A,,Clear,50,2013-04-19 05:35:00
11:55 PM,29.7,18.5,63,30.33,10.0,ENE,6.9,-,N/A,,Clear,60,2013-04-19 05:55:00